CAPE
0 0 0 0 0 0 0 0 0 0 0 0 0 0 0 0 0 0 0 0 0 0 0 0 0 0 0 0 0 0 0 0 0 0 0 6 39 34 0 269 197 475 422 289 266
0 0 0 0 0 0 0 0 0 0 0 0 0 0 0 0 0 0 0 0 0 0 0 0 0 0 0 0 0 0 0 0 0 0 0 7 45 10 22 0 6 182 313 327 212
1 3 0 0 0 0 0 0 0 0 1 0 0 0 0 0 0 0 0 0 0 0 0 0 0 0 0 0 0 0 0 0 0 0 0 0 27 0 0 0 29 16 265 271 42
2 2 2 2 2 0 0 0 0 0 0 0 0 0 0 0 0 0 0 0 0 0 0 0 0 0 0 0 0 0 0 0 0 0 0 3 49 298 321 372 475 297 175 193 42
2 2 1 1 1 0 0 0 0 0 0 0 0 0 0 0 0 0 0 0 0 0 0 0 0 0 0 0 0 0 0 0 0 0 0 7 62 130 4 159 275 370 238 175 1
3 2 2 1 0 0 0 0 0 0 0 0 0 0 0 0 0 0 0 0 0 0 0 0 0 0 0 0 0 0 0 0 0 0 0 0 1 2 3 272 232 96 67 21 1
0 3 2 3 1 0 0 0 0 0 0 0 0 2 0 0 0 0 0 0 0 0 0 0 0 0 0 0 0 0 0 0 0 0 0 0 4 0 1 0 195 57 15 9 6
0 0 3 2 2 0 0 0 0 0 0 0 0 0 0 0 0 0 0 0 0 0 0 0 0 0 0 0 0 0 0 0 0 0 2 16 0 0 0 0 0 0 2 7 1
1 0 0 3 0 0 0 0 0 0 0 0 0 0 0 0 0 0 0 0 0 0 0 0 0 0 0 0 0 0 0 0 0 1 0 1 0 5 0 0 0 0 4 11 17
0 0 0 0 1 0 0 0 0 0 0 0 0 0 0 0 0 0 0 0 0 0 0 0 0 0 0 0 0 0 0 0 0 0 3 12 26 0 1 29 0 0 29 54 9
5 0 0 0 5 3 0 0 0 0 0 0 0 0 0 0 0 0 0 0 0 0 0 0 0 0 0 0 0 0 0 0 0 0 10 52 33 8 0 38 0 0 0 79 34
10 2 0 0 3 4 0 0 0 0 0 0 0 0 0 0 0 0 0 0 0 0 0 0 0 0 0 0 0 0 0 0 0 1 3 2 31 25 0 57 0 0 0 0 35
11 11 1 0 0 0 0 0 0 0 0 0 0 0 0 0 0 0 0 0 0 0 0 0 0 0 0 0 0 0 0 0 0 4 3 0 0 44 36 108 8 0 0 0 0
12 21 7 0 0 0 0 0 0 0 0 0 0 0 0 0 0 0 0 0 0 0 0 0 0 0 0 0 0 0 0 0 0 0 0 0 0 59 96 173 91 1 0 0 0
11 11 15 0 0 0 0 0 0 48 0 0 0 0 0 0 0 0 0 0 0 0 0 0 0 0 0 0 0 0 0 0 0 0 0 0 0 0 216 150 133 127 17 0 0
20 14 17 0 0 0 0 0 7 0 0 0 0 0 0 0 0 0 0 0 0 0 0 0 0 0 0 0 0 0 0 0 0 0 0 0 0 0 72 26 156 151 144 7 0
24 15 13 0 0 0 0 0 0 0 0 0 0 0 0 0 0 0 0 0 0 0 0 0 0 0 0 0 0 0 0 0 0 0 0 4 5 0 6 4 120 16 222 142 1
12 5 16 0 0 0 0 10 0 0 0 0 0 0 0 0 0 0 0 0 0 0 0 0 0 0 0 0 0 0 0 0 0 0 0 0 0 14 0 0 0 7 208 234 88
11 14 14 0 0 2 8 13 0 0 0 0 0 0 2 0 0 0 0 0 0 0 0 0 0 0 0 0 0 0 0 0 0 0 0 0 0 0 0 0 0 0 0 127 234
13 15 7 0 0 10 6 0 0 0 0 0 0 0 0 14 2 0 0 0 0 0 0 0 0 0 0 0 0 0 0 5 10 4 0 2 8 25 0 0 0 0 0 0 30
17 7 0 0 19 10 0 0 0 0 0 0 0 0 0 0 0 0 0 0 0 0 0 0 0 0 0 0 0 0 0 0 2 0 3 0 0 0 1 0 0 0 0 4 35
12 0 0 0 4 9 1 0 0 0 0 0 0 0 0 0 0 0 0 6 0 0 0 0 0 0 0 0 0 0 0 0 0 0 30 2 0 2 0 0 0 0 0 0 0
2 1 3 0 2 1 1 0 0 0 0 0 0 0 0 0 0 0 11 0 3 2 0 0 0 0 0 0 0 0 0 0 0 0 7 32 0 50 8 0 0 0 0 0 0
0 0 3 13 0 0 1 2 0 0 0 0 0 0 0 0 0 0 0 1 0 0 0 0 0 0 0 0 0 0 0 0 0 0 0 0 2 44 16 11 0 0 8 0 0
1 0 0 6 2 2 0 0 1 2 0 0 0 0 0 0 0 0 0 0 0 0 0 1 0 0 0 0 0 3 0 0 0 0 0 1 3 0 1 25 13 3 7 1 0
0 0 7 0 8 2 1 0 0 0 0 0 0 0 0 0 0 0 4 3 0 0 0 2 0 1 0 0 0 0 0 0 0 6 24 17 0 2 0 16 24 10 1 0 0
0 0 0 4 3 10 0 0 0 0 0 0 0 0 0 0 0 20 163 26 0 0 0 0 0 0 0 0 0 0 0 0 0 0 1 0 0 0 12 23 9 20 0 8 0
CIN
-0 -0 -0 -0 -0 -0 -0 -0 -0 -0 -0 -0 -0 -0 -0 -0 -0 -0 -0 -0 -0 -0 -0 -0 -0 -0 -0 -0 -0 -0 -0 -0 -0 -0 -0 -62 -94 -210 -17 -34 -124 -34 -109 -121 -121
-0 -0 -0 -0 -0 -0 -0 -0 -0 -0 -0 -0 -0 -0 -0 -0 -0 -0 -0 -0 -0 -0 -0 -0 -0 -0 -0 -0 -0 -0 -0 -0 -0 -0 -0 -72 -95 -141 -132 -0 -50 -87 -95 -80 -92
-0 -0 -0 -0 -0 -0 -0 -0 -0 -0 -0 -0 -0 -0 -0 -0 -0 -0 -0 -0 -0 -0 -0 -0 -0 -0 -0 -0 -0 -0 -0 -0 -0 -0 -0 -0 -81 -0 -0 -0 -77 -183 -112 -78 -142
-0 -0 -0 -1 -0 -0 -0 -0 -0 -0 -0 -0 -0 -0 -0 -0 -0 -0 -0 -0 -0 -0 -0 -0 -0 -0 -0 -0 -0 -0 -0 -0 -0 -0 -0 -46 -108 -89 -27 -8 -38 -83 -88 -87 -163
-0 -0 -0 -0 -0 -1 -0 -0 -0 -0 -0 -0 -0 -0 -0 -0 -0 -0 -0 -0 -0 -0 -0 -0 -0 -0 -0 -0 -0 -0 -0 -0 -0 -0 -0 -93 -153 -146 -82 -90 -31 -58 -46 -46 -19
-6 -0 -0 -2 -0 -0 -0 -0 -0 -0 -0 -0 -0 -0 -0 -0 -0 -0 -0 -0 -0 -0 -0 -0 -0 -0 -0 -0 -0 -0 -0 -0 -0 -0 -0 -13 -89 -31 -114 -170 -102 -127 -136 -91 -38
-0 -7 -1 -1 -0 -0 -0 -0 -0 -0 -0 -0 -0 -0 -0 -0 -0 -0 -0 -0 -0 -0 -0 -0 -0 -0 -0 -0 -0 -0 -0 -0 -0 -0 -0 -0 -32 -0 -2 -0 -130 -87 -179 -126 -87
-0 -6 -10 -1 -0 -0 -0 -0 -0 -0 -0 -0 -0 -0 -0 -0 -0 -0 -0 -0 -0 -0 -0 -0 -0 -0 -0 -0 -0 -0 -0 -0 -0 -0 -33 -85 -0 -0 -0 -0 -0 -0 -193 -226 -62
-2 -0 -6 -13 -4 -0 -0 -0 -0 -0 -0 -0 -0 -0 -0 -0 -0 -0 -0 -0 -0 -0 -0 -0 -0 -0 -0 -0 -0 -0 -0 -0 -0 -2 -0 -23 -44 -75 -0 -0 -0 -0 -211 -260 -259
-0 -0 -0 -0 -14 -0 -0 -0 -0 -0 -0 -0 -0 -0 -0 -0 -0 -0 -0 -0 -0 -0 -0 -0 -0 -0 -0 -0 -0 -0 -0 -0 -8 -0 -63 -97 -110 -0 -40 -144 -11 -0 -197 -169 -266
-6 -0 -0 -0 -14 -8 -0 -0 -0 -0 -0 -0 -0 -0 -0 -0 -0 -0 -0 -0 -0 -0 -0 -0 -0 -0 -0 -0 -0 -0 -0 -0 -0 -0 -41 -36 -60 -115 -0 -156 -0 -0 -0 -156 -201
-3 -6 -0 -0 -17 -13 -0 -0 -0 -0 -0 -0 -0 -0 -0 -0 -0 -0 -0 -0 -0 -0 -0 -0 -0 -0 -0 -0 -0 -0 -0 -0 -0 -20 -16 -46 -52 -107 -0 -163 -0 -0 -0 -0 -236
-2 -4 -3 -0 -1 -0 -0 -0 -0 -0 -0 -0 -0 -0 -0 -0 -0 -0 -0 -0 -0 -0 -0 -0 -0 -0 -0 -0 -0 -0 -0 -0 -0 -4 -15 -0 -0 -102 -151 -137 -108 -0 -0 -0 -0
-4 -3 -7 -0 -0 -0 -0 -0 -0 -0 -0 -0 -0 -0 -0 -0 -0 -0 -0 -0 -0 -0 -0 -0 -0 -0 -0 -0 -0 -0 -0 -0 -0 -3 -0 -0 -0 -58 -70 -115 -138 -162 -0 -0 -0
-7 -4 -5 -0 -0 -0 -0 -0 -0 -5 -0 -0 -0 -0 -0 -0 -0 -0 -0 -0 -0 -0 -0 -0 -0 -0 -0 -0 -0 -0 -0 -0 -0 -0 -0 -0 -0 -2 -29 -50 -75 -127 -179 -0 -0
-5 -6 -6 -0 -0 -0 -0 -0 -5 -0 -0 -0 -0 -0 -0 -0 -0 -0 -0 -0 -0 -0 -0 -0 -0 -0 -0 -0 -0 -0 -0 -0 -0 -0 -0 -0 -0 -18 -12 -4 -14 -64 -119 -87 -0
-5 -12 -5 -0 -0 -0 -0 -0 -0 -0 -0 -0 -0 -0 -0 -0 -0 -0 -0 -0 -0 -0 -0 -0 -0 -0 -0 -0 -0 -0 -2 -2 -0 -0 -0 -51 -19 -0 -29 -49 -45 -100 -80 -104 -13
-9 -10 -5 -0 -0 -0 -0 -12 -0 -0 -0 -0 -0 -0 -0 -0 -0 -0 -0 -0 -0 -0 -0 -0 -0 -0 -0 -0 -0 -0 -0 -0 -0 -0 -0 -0 -0 -15 -0 -0 -0 -11 -36 -57 -81
-13 -5 -2 -48 -0 -0 -4 -0 -0 -0 -0 -0 -0 -0 -5 -0 -0 -0 -0 -0 -0 -0 -0 -0 -0 -0 -0 -0 -0 -0 -0 -0 -0 -0 -0 -0 -0 -0 -10 -0 -0 -0 -0 -40 -69
-3 -6 -3 -0 -1 -5 -2 -0 -0 -0 -0 -0 -0 -0 -0 -10 -1 -0 -0 -0 -0 -0 -0 -0 -0 -0 -0 -0 -0 -0 -0 -10 -27 -8 -0 -40 -44 -27 -0 -0 -0 -0 -0 -0 -70
-0 -0 -0 -0 -5 -5 -0 -0 -0 -0 -0 -0 -0 -0 -0 -0 -0 -0 -0 -0 -0 -0 -0 -0 -0 -0 -0 -0 -0 -0 -0 -0 -6 -4 -20 -0 -0 -0 -16 -0 -0 -0 -0 -81 -122
-0 -0 -0 -0 -0 -0 -0 -0 -0 -0 -0 -0 -0 -0 -0 -0 -0 -0 -0 -16 -0 -0 -0 -0 -0 -0 -0 -0 -0 -0 -0 -0 -0 -0 -9 -4 -0 -59 -0 -0 -0 -0 -0 -0 -0
-0 -0 -10 -0 -0 -0 -0 -0 -0 -0 -0 -0 -0 -0 -0 -0 -0 -0 -7 -0 -51 -42 -0 -0 -0 -0 -0 -0 -0 -0 -0 -0 -0 -0 -15 -8 -0 -36 -33 -0 -0 -0 -0 -0 -0
-0 -0 -0 -0 -0 -0 -0 -0 -0 -0 -0 -0 -0 -0 -0 -0 -0 -0 -0 -4 -10 -29 -0 -0 -0 -0 -0 -0 -0 -0 -0 -0 -0 -0 -0 -0 -4 -64 -17 -37 -0 -0 -60 -0 -0
-0 -0 -0 -0 -0 -0 -1 -0 -0 -0 -0 -0 -0 -0 -0 -0 -0 -0 -0 -0 -0 -0 -0 -45 -0 -0 -0 -0 -0 -2 -0 -0 -0 -0 -1 -13 -21 -0 -14 -28 -37 -72 -68 -18 -0
-0 -0 -0 -0 -0 -0 -0 -0 -0 -0 -0 -0 -0 -0 -0 -0 -0 -0 -67 -88 -2 -0 -0 -62 -0 -4 -7 -0 -0 -0 -0 -0 -0 -12 -9 -16 -3 -19 -0 -42 -44 -43 -53 -0 -0
-0 -0 -0 -1 -8 -0 -0 -0 -0 -0 -0 -0 -0 -0 -0 -0 -0 -29 -30 -69 -0 -0 -0 -0 -0 -0 -0 -0 -0 -0 -0 -0 -0 -0 -8 -0 -0 -0 -16 -26 -17 -33 -0 -39 -58
Wind_Speed
33 33 34 34 34 35 35 35 35 35 35 36 37 38 39 40 41 29 19 12 11 10 14 14 10 9 6 9 6 6 7 2 3 13 19 17 21 23 24 23 20 21 17 13 10
32 33 33 34 34 35 35 35 35 35 35 36 37 38 39 40 37 25 13 9 9 11 13 10 9 8 10 5 5 5 4 4 3 26 25 20 19 17 22 30 14 13 15 15 12
33 33 33 33 34 34 35 36 36 36 36 36 36 37 38 38 27 17 12 8 10 10 9 11 6 8 4 3 3 2 3 8 1 18 24 29 22 15 22 18 10 10 14 12 13
34 34 34 34 34 34 35 35 36 36 36 36 36 37 38 22 18 17 12 11 11 10 11 12 9 9 7 3 2 2 5 6 7 20 26 24 19 23 25 24 21 18 15 15 14
34 35 35 35 35 35 35 36 36 36 36 36 36 35 29 20 13 14 13 12 11 10 7 5 6 6 5 7 8 6 3 4 18 6 14 16 20 19 22 21 20 20 19 15 15
36 36 36 35 35 36 36 37 37 37 36 36 35 33 21 19 17 7 10 13 7 8 6 5 6 4 8 9 10 7 4 9 15 12 10 12 15 23 16 14 16 21 22 20 15
36 36 36 36 36 37 38 38 38 38 37 35 33 28 23 11 18 11 19 12 6 5 3 6 2 14 19 12 13 2 2 2 16 6 7 11 15 26 14 17 15 17 19 22 16
37 37 37 36 37 38 39 40 40 40 38 34 30 26 27 24 13 17 20 8 2 1 5 1 21 17 12 8 8 5 3 3 13 6 9 12 16 23 11 13 13 14 18 22 21
36 37 36 37 37 38 39 41 43 41 36 29 26 21 33 27 16 8 8 4 2 5 3 14 17 15 3 5 3 5 2 2 6 7 10 11 11 12 11 10 13 14 16 18 21
36 35 37 38 37 38 39 42 43 35 27 21 23 26 25 21 17 14 4 4 9 2 8 9 16 4 4 2 4 3 6 12 11 14 12 10 8 8 10 12 13 15 17 19 20
33 33 34 36 36 35 36 30 26 26 23 25 25 26 31 28 29 11 6 6 6 9 6 5 4 7 4 7 8 3 3 3 7 14 9 3 3 5 7 10 13 15 16 18 21
32 32 33 33 34 32 31 27 24 27 39 33 37 38 32 32 33 32 5 9 9 13 7 5 9 5 8 8 7 5 5 10 19 7 10 12 3 5 11 13 12 14 16 17 19
31 31 32 32 32 31 30 29 34 37 37 44 35 35 28 28 30 28 13 9 14 16 11 9 9 9 8 5 4 3 8 6 3 9 7 12 17 6 10 12 12 13 13 15 17
30 28 28 29 28 26 24 25 30 26 38 39 33 32 24 20 30 18 17 11 17 14 18 21 9 14 15 9 5 14 8 10 8 12 3 14 2 2 11 13 17 14 14 16 17
26 25 24 23 28 25 23 29 30 18 39 26 23 17 11 15 17 15 17 19 18 15 16 14 20 8 8 16 13 12 9 9 11 6 8 12 4 2 10 12 16 15 14 16 18
25 23 22 24 24 24 31 30 20 26 38 26 17 16 14 11 19 20 13 17 18 19 24 30 13 11 8 18 9 15 11 14 14 6 5 7 5 7 8 3 11 11 15 14 18
25 23 21 21 23 22 24 21 27 36 24 30 21 16 19 19 17 20 14 20 20 22 24 32 42 31 25 17 10 10 10 12 10 2 5 21 8 8 3 4 11 11 15 17 17
24 23 22 21 22 22 21 24 39 35 31 20 16 31 23 20 20 19 21 25 25 21 22 27 31 20 15 13 11 10 9 9 11 11 10 23 2 11 6 7 2 4 12 11 14
24 24 23 21 21 18 23 33 37 33 25 38 32 35 27 21 22 19 25 30 29 22 27 24 36 24 18 18 13 16 8 12 12 15 15 13 8 31 7 7 7 9 6 8 13
25 25 25 18 17 19 28 38 39 34 41 38 40 32 28 24 23 25 22 23 31 22 20 31 32 30 38 19 17 17 15 6 11 14 6 10 3 7 5 12 8 8 8 7 5
22 26 20 15 15 23 33 33 34 39 39 39 40 42 41 37 31 33 28 27 25 24 21 27 36 32 26 27 23 14 13 14 10 12 9 8 6 7 8 13 16 11 5 7 8
23 28 15 13 21 25 31 26 33 28 32 43 38 39 42 41 36 36 32 27 22 24 26 25 27 34 43 26 28 21 13 14 12 15 18 12 6 11 8 16 14 20 8 9 8
26 25 19 18 24 23 24 36 51 43 37 31 39 42 40 43 38 34 30 29 30 26 32 30 32 36 34 37 33 27 20 14 15 19 15 10 14 13 12 14 24 15 16 10 6
23 25 22 23 23 22 22 24 25 31 45 47 41 40 53 48 42 38 34 30 31 31 31 35 29 31 29 28 25 33 26 20 19 17 21 18 22 18 15 18 14 16 18 19 8
28 30 24 26 33 26 24 29 24 29 31 27 41 41 42 46 45 42 34 31 31 32 29 29 30 32 32 32 31 28 22 25 23 18 17 24 24 34 25 23 22 20 22 24 15
33 32 28 32 28 29 31 29 26 21 23 34 35 33 37 44 50 44 34 29 28 29 30 27 33 28 33 33 33 38 41 24 24 24 19 23 26 13 37 25 14 13 13 13 11
30 35 27 33 29 29 36 39 29 28 33 24 26 33 38 38 40 44 32 31 30 30 33 31 29 29 39 36 37 50 45 37 27 29 30 20 21 25 21 14 13 12 13 11 11
Wind_Direction
305 305 304 304 304 304 304 305 307 309 308 307 307 307 307 307 304 328 335 351 7 17 11 12 40 51 90 56 109 115 67 149 274 28 21 24 7 354 358 342 352 353 15 30 23
307 306 305 306 306 304 303 303 304 306 308 306 305 305 304 308 312 328 348 6 17 19 4 27 44 62 40 66 67 68 68 201 31 0 350 11 14 19 1 328 13 26 31 21 9
305 306 306 307 308 307 304 302 301 302 304 306 305 305 304 308 326 341 4 20 16 16 19 6 49 24 54 92 168 148 170 239 351 16 355 335 350 29 2 13 62 52 25 31 7
303 303 305 305 306 306 305 303 301 299 300 303 303 304 303 330 332 342 4 1 6 13 2 354 23 22 57 98 99 328 46 204 211 359 344 344 8 3 354 9 19 23 20 359 353
301 302 302 302 304 305 303 301 301 301 298 300 303 304 318 321 314 334 336 347 353 356 6 37 36 47 148 25 1 54 47 171 252 222 34 37 10 9 1 11 28 28 28 13 355
297 298 299 300 303 303 302 299 300 299 298 298 302 305 319 311 323 340 342 335 350 347 3 131 22 105 359 3 15 36 195 30 232 227 56 37 30 358 7 47 43 25 31 13 7
295 295 296 297 300 300 299 297 296 296 296 298 302 309 308 270 313 328 317 335 345 341 13 138 46 341 343 5 15 236 173 84 224 40 184 32 27 0 71 52 48 43 53 41 43
292 293 294 296 296 297 296 295 293 291 292 296 304 307 300 305 308 231 215 206 301 296 183 277 323 331 350 13 14 40 94 131 223 166 48 27 360 10 64 60 56 61 68 73 78
293 291 293 293 295 295 294 292 286 287 291 300 305 304 292 299 311 285 201 264 215 177 307 314 320 330 45 23 34 65 154 173 299 70 19 14 22 37 54 76 74 86 86 88 93
293 295 292 291 293 294 293 290 281 293 301 304 298 295 295 305 317 323 248 261 289 320 321 307 309 332 12 75 137 127 41 23 25 352 357 5 43 59 60 100 97 113 106 112 102
299 302 300 293 295 297 300 302 298 296 298 287 288 285 287 292 291 316 327 271 266 285 278 301 297 200 185 179 188 212 252 331 23 348 7 35 24 110 114 101 114 127 118 128 128
298 300 301 300 295 298 296 292 292 304 286 284 278 277 282 283 283 278 284 270 252 272 271 270 210 206 185 197 221 252 266 357 5 56 352 359 182 139 148 146 132 118 122 122 119
298 297 299 301 299 296 286 285 289 294 287 280 281 279 274 273 272 275 275 232 270 268 264 244 288 198 202 226 287 272 346 341 7 27 360 281 338 138 168 154 143 132 128 129 121
294 297 297 303 299 299 292 301 296 296 285 282 284 281 271 263 272 211 267 242 264 257 271 279 236 207 219 275 291 326 349 348 350 9 54 355 168 22 178 168 161 148 141 141 140
294 296 297 299 294 294 302 298 293 300 277 290 286 297 292 237 284 265 215 260 247 251 268 258 284 244 241 300 317 315 334 350 350 4 9 207 47 153 152 159 168 162 154 154 153
290 290 293 293 291 287 293 295 290 272 270 282 287 277 284 239 267 295 235 237 261 260 266 271 270 247 249 299 309 309 324 328 341 348 239 199 190 199 150 341 172 171 172 162 160
287 284 282 285 285 295 298 286 263 258 276 274 279 279 274 274 266 261 262 245 249 253 260 268 252 261 280 292 298 295 320 333 342 1 193 331 341 189 181 160 179 178 175 171 165
282 281 277 279 281 289 287 263 258 265 255 289 274 284 272 272 269 266 256 260 252 255 275 264 267 264 275 268 284 275 285 303 334 340 338 318 98 357 128 136 84 173 175 178 179
277 276 274 273 271 278 266 250 259 259 265 257 274 283 265 273 274 263 263 260 264 242 256 267 261 276 265 281 269 286 266 297 307 325 329 344 218 279 336 135 344 9 43 176 187
270 271 267 261 265 261 259 257 262 263 262 267 264 272 271 272 270 268 269 274 260 248 234 262 270 262 253 269 264 261 285 280 306 306 324 345 140 157 57 337 8 8 349 356 65
263 269 267 243 251 251 252 262 265 262 263 261 263 261 266 271 279 276 269 270 269 254 243 253 259 262 270 264 262 261 233 274 299 290 310 320 341 356 331 304 314 330 17 344 11
259 262 257 208 245 251 247 256 268 271 263 260 264 263 260 264 273 279 271 273 282 262 249 248 262 259 254 273 270 263 239 245 249 283 294 299 249 319 4 308 310 298 318 330 2
254 258 249 221 247 234 214 213 237 255 261 269 261 256 260 261 267 274 279 273 281 284 259 254 250 258 264 256 261 262 256 264 277 275 250 249 288 305 320 321 291 294 312 316 322
247 250 253 230 242 228 237 251 252 266 251 250 265 263 253 258 262 267 273 273 279 278 276 252 250 249 239 259 261 259 266 262 263 268 275 270 285 292 294 309 309 314 311 318 303
241 252 246 237 218 239 248 267 255 261 264 271 262 263 253 252 257 259 268 276 272 271 275 271 251 252 251 255 255 260 261 267 267 250 253 282 285 277 290 287 296 299 301 301 307
240 244 243 256 247 237 250 233 243 261 264 260 262 267 262 254 251 256 262 269 268 269 272 274 262 255 258 251 252 260 261 265 269 278 273 281 285 273 268 287 289 298 303 304 269
239 244 247 248 250 240 221 218 229 259 267 263 265 268 261 212 257 260 273 262 263 264 267 266 268 258 253 254 258 256 255 266 272 273 282 276 282 288 291 286 284 280 282 279 263